WFOV (USA 332)

Last updated on Fri Apr 18 2025 00:02:43 GMT+0000 (Coordinated Universal Time)

1 52940U 22073A 25107.55761164 -.00000352 00000+0 00000+0 0 9993 2 52940 2.6139 84.0581 0002069 246.2789 195.5732 1.00268258 10100
UTC large
Height (km)
Speed (km/s)
/
Latitude / Longitude
Inclination (degrees)
Orbital Period (minutes)
Azimuth
Elevation
Range (km)
Doppler Factor

Next 0 passes for location: London (51.5072 / 0.1276)

Sorry there are no passes over London.